Regional Weather Roundup
Issued by NWS

Home | Current Version | Previous Version | Text Only | Print | Product List | Glossary On
Versions: 1 2 3 4 5 6 7 8 9 10 11 12 13 14 15 16 17 18 19 20 21 22 23 24 25 26 27 28 29 30 31 32 33 34 35 36 37 38 39 40 41 42 43 44 45 46 47 48 49 50
000
ASUS43 KLSX 290910
RWRMO

WEATHER SUMMARY FOR MISSOURI
NATIONAL WEATHER SERVICE SPRINGFIELD MO
400 AM CDT SAT AUG 29 2015

NOTE: "FAIR" INDICATES FEW OR NO CLOUDS BELOW 12,000 FEET WITH NO
       SIGNIFICANT WEATHER AND/OR OBSTRUCTIONS TO VISIBILITY.
       CURRENT SKY AND/OR WEATHER CONDITIONS ARE NOT AVAILABLE FOR
       CHILLICOTHE AND FARMINGTON.

MOZ001>031-035>038-043-044-053-054-291000-
...NORTHERN AND WESTERN MISSOURI...

CITY           SKY/WX    TMP DP  RH WIND       PRES   REMARKS
KANSAS CTY INT CLOUDY    70  68  93 W5        29.93S
KANSAS C DTWN  CLOUDY    73  69  87 SW5       29.92R
LEE`S SUMMIT   PTCLDY    71  67  87 SW6       29.94S
ST JOSEPH      MOCLDY    67  65  93 NW5       29.94R
CHILLICOTHE      N/A     70  68  93 CALM      29.94S
KIRKSVILLE     CLOUDY    68  63  84 SE5       29.96R

$$
MOZ066>068-077>081-088>096-101>105-291000-
...SOUTHWEST MISSOURI...

CITY           SKY/WX    TMP DP  RH WIND       PRES   REMARKS
SPRINGFIELD    CLOUDY    71  59  65 S12       29.99S
JOPLIN         CLOUDY    72  63  73 S8        29.98S

$$
MOZ032>034-039>042-045>050-055>058-069>072-291000-
...CENTRAL MISSOURI...

CITY           SKY/WX    TMP DP  RH WIND       PRES   REMARKS
COLUMBIA       CLOUDY    68  63  84 S8        29.97F
JEFFERSON CITY CLOUDY    70  62  76 SE8       29.97S
ROLLA          CLOUDY    69  61  75 S9        29.99F
SEDALIA        CLEAR     70  62  76 S12       29.96S
WARRENSBURG    CLEAR     68  63  83 S8        29.93F
OSAGE BEACH    CLOUDY    70  59  68 SE5       29.98S

$$
MOZ051-052-059>065-291000-
...EAST CENTRAL MISSOURI...

CITY           SKY/WX    TMP DP  RH WIND       PRES   REMARKS
ST LOUIS INTL  CLOUDY    73  62  68 SE6       30.02
SPIRIT OF STL  CLOUDY    67  65  93 CALM      30.00F
ST CHARLES     CLOUDY    68  66  93 E6        30.00F

$$
MOZ072>076-082>087-097>100-106>115-291000-
...SOUTH CENTRAL AND SOUTHEAST MISSOURI...

CITY           SKY/WX    TMP DP  RH WIND       PRES   REMARKS
CAPE GIRARDEAU CLOUDY    70  66  87 SE6       30.02S
FARMINGTON     CLOUDY    70  63  78 CALM      30.06R
POPLAR BLUFF   MOCLDY    67  65  93 CALM      30.00F
WEST PLAINS    MOCLDY    71  60  68 S7        30.05F

$$


USA.gov is the U.S. government's official web portal to all federal, state and local government web resources and services.